カタログに戻る

SL-12 DEB

LostHEO
NORAD 44562·DEBRIS·🇷🇺 Russia

打ち上げ Sep 2, 2010 から Baikonur Cosmodrome

Loading…

次のパス (今後24時間)

TLE

古いSource: Space-Track

元期: Dec 11, 2019, 07:01 UTC

1 44562U 10041AH  19345.29254252  .00234506  00000-0  15955+0 0  9994
2 44562  65.6774 254.1853 5786782  30.2209 353.2078  4.27788073    10

AllMySatでSL-12 DEBをリアルタイム追跡

Download on the App Store